CHINASAT 9A (ZX 9A)     
1 42763U 17035A   19260.93193544 -.00000318  00000-0  00000-0 0  9997
2 42763   0.0381 251.3226 0002893 243.6641 298.5297  1.00274809  8949
CZ-3B R/B               
1 42764U 17035B   19255.97609190  .00094620 -51062-6  53768-3 0  9996
2 42764  25.6715 131.9444 4380622 237.1027  73.1189  6.89676580 48493